Flushing, NY

6:16 AM EDT on July 30, 2016 (GMT -0400)
La Guardia

Weather History for KLGA - January, 2013

Change the Weather History Date:

Saturday, January 19, 2013

  Actual Average Record
Temperature  
Mean Temperature 42 °F 33 °F  
Max Temperature 52 °F 39 °F 64 °F (1951)
Min Temperature 31 °F 26 °F -3 °F (1994)
Degree Days  
Heating Degree Days 23 32  
Month to date heating degree days 487 604  
Since 1 July heating degree days 1939 2210  
Cooling Degree Days 0 0  
Month to date cooling degree days 0 0  
Year to date cooling degree days 0 0  
Moisture  
Dew Point 21 °F    
Average Humidity 46    
Maximum Humidity 61    
Minimum Humidity 30    
Precipitation  
Precipitation 0.00 in 0.10 in 0.76 in (2001)
Month to date precipitation 1.38 1.98  
Year to date precipitation 1.38 1.98  
Snow  
Snow 0.00 in 0.20 in 5.60 in (1961)
Month to date snowfall 0.1 4.5  
Since 1 July snowfall 2.1 10.0  
Snow Depth 0.00 in    
Sea Level Pressure  
Sea Level Pressure 30.18 in    
Wind  
Wind Speed 14 mph (SW)    
Max Wind Speed 22 mph    
Max Gust Speed 30 mph    
Visibility 10 miles    
Events      
T = Trace of Precipitation, MM = Missing Value Source: NWS Daily Summary

Daily Weather History Graph

Daily Weather History Graph

Search for Another Location

Airport or City:

Trip Planner

Search our weather history database for the weather conditions in past years. The results will help you decide how hot, cold, wet, or windy it might be!

Date:

Astronomy

Jan. 19, 2013 Rise Set
Actual Time 7:15 AM EST 4:57 PM EST
Civil Twilight 6:45 AM EST 5:27 PM EST
Nautical Twilight 6:12 AM EST 6:00 PM EST
Astronomical Twilight 5:39 AM EST 6:33 PM EST
Moon 11:22 AM EST (1/19) 12:46 AM EST (1/19)
Length of Visible Light 10h 41m
Length of Day
9h 42m
First Quarter, 57% of the Moon is Illuminated
Jan 19
First Quarter
Jan 26
Full
Feb 3
Last Quarter
Feb 10
New
Feb 17
First Quarter

Hourly Weather History & Observations

Time (EST) Temp. Windchill Dew Point Humidity Pressure Visibility Wind Dir Wind Speed Gust Speed Precip Events Conditions
12:51 AM 30.9 °F 21.2 °F 9.0 °F 40% 30.40 in 10.0 mi SW 12.7 mph - N/A   Clear
1:51 AM 30.2 °F 19.8 °F 10.4 °F 44% 30.40 in 10.0 mi SSW 13.8 mph 18.4 mph N/A   Clear
2:51 AM 30.9 °F 22.8 °F 12.0 °F 46% 30.37 in 10.0 mi SSW 9.2 mph - N/A   Clear
3:51 AM 32.0 °F 23.0 °F 14.0 °F 48% 30.34 in 10.0 mi SSW 11.5 mph - N/A   Partly Cloudy
4:51 AM 33.1 °F 23.9 °F 16.0 °F 50% 30.32 in 10.0 mi SSW 12.7 mph 21.9 mph N/A   Scattered Clouds
5:51 AM 33.1 °F 23.4 °F 18.0 °F 54% 30.32 in 10.0 mi SSW 13.8 mph 20.7 mph N/A   Mostly Cloudy
6:51 AM 33.1 °F 21.9 °F 19.9 °F 59% 30.30 in 10.0 mi SW 18.4 mph 24.2 mph N/A   Mostly Cloudy
7:51 AM 34.0 °F 25.0 °F 21.9 °F 61% 30.30 in 10.0 mi SW 12.7 mph 19.6 mph N/A   Mostly Cloudy
8:51 AM 36.0 °F 26.0 °F 23.0 °F 59% 30.29 in 10.0 mi SW 17.3 mph 25.3 mph N/A   Mostly Cloudy
9:51 AM 39.0 °F 32.3 °F 24.1 °F 55% 30.27 in 10.0 mi SW 10.4 mph 24.2 mph N/A   Scattered Clouds
10:51 AM 41.0 °F 31.9 °F 23.0 °F 49% 30.23 in 10.0 mi SSW 19.6 mph 26.5 mph N/A   Scattered Clouds
11:51 AM 44.1 °F 37.1 °F 24.1 °F 45% 30.18 in 10.0 mi SW 15.0 mph 23.0 mph N/A   Scattered Clouds
12:51 PM 46.9 °F - 24.1 °F 41% 30.14 in 10.0 mi SW 17.3 mph 23.0 mph N/A   Mostly Cloudy
1:51 PM 48.9 °F - 24.1 °F 38% 30.11 in 10.0 mi WSW 13.8 mph - N/A   Mostly Cloudy
2:51 PM 51.1 °F - 23.0 °F 33% 30.09 in 10.0 mi SW 10.4 mph 24.2 mph N/A   Mostly Cloudy
3:51 PM 52.0 °F - 21.9 °F 31% 30.06 in 10.0 mi SW 15.0 mph 24.2 mph N/A   Mostly Cloudy
4:51 PM 51.1 °F - 23.0 °F 33% 30.05 in 10.0 mi SSW 11.5 mph - N/A   Mostly Cloudy
5:51 PM 50.0 °F - 24.1 °F 36% 30.04 in 10.0 mi SSW 15.0 mph 20.7 mph N/A   Mostly Cloudy
6:51 PM 50.0 °F - 24.1 °F 36% 30.04 in 10.0 mi SSW 13.8 mph 20.7 mph N/A   Mostly Cloudy
7:51 PM 48.0 °F - 25.0 °F 41% 30.03 in 10.0 mi SSW 16.1 mph 26.5 mph N/A   Mostly Cloudy
8:51 PM 46.9 °F - 25.0 °F 42% 30.01 in 10.0 mi SSW 16.1 mph - N/A   Scattered Clouds
9:51 PM 46.0 °F 39.6 °F 25.0 °F 44% 29.99 in 10.0 mi SSW 15.0 mph - N/A   Scattered Clouds
10:51 PM 46.0 °F 39.9 °F 25.0 °F 44% 29.96 in 10.0 mi SSW 13.8 mph 23.0 mph N/A   Mostly Cloudy
11:51 PM 45.0 °F 39.3 °F 26.1 °F 48% 29.93 in 10.0 mi SSW 11.5 mph - N/A   Mostly Cloudy